TimeMDT,TemperatureF,Dew PointF,Humidity,Sea Level PressureIn,VisibilityMPH,Wind Direction,Wind SpeedMPH,Gust SpeedMPH,PrecipitationIn,Events,Conditions,WindDirDegrees,DateUTC
12:53 AM,37.9,19.9,48,29.94,10.0,WSW,9.2,-,N/A,,Scattered Clouds,250,2013-03-11 06:53:00
1:53 AM,37.9,19.9,48,29.93,10.0,West,11.5,-,N/A,,Overcast,280,2013-03-11 07:53:00
2:53 AM,39.9,19.9,45,29.93,10.0,NW,17.3,-,N/A,,Overcast,310,2013-03-11 08:53:00
3:53 AM,37.9,23.0,55,29.94,10.0,NNW,19.6,-,N/A,,Overcast,340,2013-03-11 09:53:00
4:41 AM,33.8,30.2,87,29.94,9.0,NNW,8.1,-,0.00,Snow,Light Snow,330,2013-03-11 10:41:00
4:53 AM,34.0,30.9,89,29.95,10.0,NW,10.4,-,0.00,,Overcast,320,2013-03-11 10:53:00
5:06 AM,33.8,30.2,87,29.93,9.0,NNW,9.2,-,0.00,Snow,Light Snow,330,2013-03-11 11:06:00
5:25 AM,33.8,32.0,93,29.93,10.0,NW,10.4,-,0.00,,Overcast,320,2013-03-11 11:25:00
5:53 AM,33.1,32.0,96,29.97,7.0,NW,10.4,-,0.00,Snow,Light Snow,310,2013-03-11 11:53:00
6:13 AM,33.8,32.0,93,29.94,9.0,WNW,15.0,-,0.00,,Overcast,300,2013-03-11 12:13:00
6:53 AM,34.0,32.0,92,30.00,10.0,NW,13.8,-,0.00,,Overcast,310,2013-03-11 12:53:00
7:07 AM,33.8,32.0,93,29.95,8.0,NW,15.0,-,0.00,Snow,Light Snow,310,2013-03-11 13:07:00
7:39 AM,33.8,32.0,93,29.97,2.0,NNW,24.2,35.7,0.00,Snow,Light Snow,330,2013-03-11 13:39:00
7:43 AM,32.0,30.2,93,29.96,0.8,NNW,27.6,35.7,0.00,Snow,Light Snow,340,2013-03-11 13:43:00
7:53 AM,30.9,28.9,92,30.04,0.8,NW,24.2,36.8,0.00,Snow,Light Snow,320,2013-03-11 13:53:00
7:58 AM,30.2,28.4,93,29.97,2.5,NW,24.2,32.2,0.00,Snow,Light Snow,310,2013-03-11 13:58:00
8:03 AM,30.2,28.4,93,29.97,4.0,NW,19.6,32.2,0.00,Snow,Light Snow,310,2013-03-11 14:03:00
8:53 AM,32.0,28.0,85,30.03,10.0,WNW,18.4,-,0.01,,Overcast,290,2013-03-11 14:53:00
9:53 AM,34.0,30.0,85,30.05,10.0,NW,17.3,27.6,N/A,,Clear,320,2013-03-11 15:53:00
10:53 AM,37.9,26.1,62,30.02,10.0,NNW,18.4,-,N/A,,Clear,330,2013-03-11 16:53:00
11:53 AM,41.0,21.9,47,30.00,10.0,NNW,16.1,23.0,N/A,,Clear,330,2013-03-11 17:53:00
12:53 PM,39.9,21.0,47,29.99,10.0,NW,18.4,27.6,N/A,,Scattered Clouds,310,2013-03-11 18:53:00
1:53 PM,43.0,21.9,43,29.95,10.0,North,16.1,28.8,N/A,,Overcast,350,2013-03-11 19:53:00
2:53 PM,42.1,21.0,43,29.95,10.0,NNW,28.8,39.1,N/A,,Mostly Cloudy,340,2013-03-11 20:53:00
3:53 PM,39.0,19.0,45,29.98,10.0,North,23.0,36.8,N/A,,Mostly Cloudy,350,2013-03-11 21:53:00
4:53 PM,37.9,19.0,47,30.01,10.0,North,26.5,33.4,N/A,,Partly Cloudy,350,2013-03-11 22:53:00
5:53 PM,35.1,19.0,52,30.06,10.0,North,18.4,25.3,N/A,,Overcast,350,2013-03-11 23:53:00
6:53 PM,30.9,24.1,76,30.12,9.0,NW,18.4,24.2,0.00,,Overcast,320,2013-03-12 00:53:00
7:53 PM,30.0,19.9,66,30.17,10.0,NNW,19.6,-,N/A,,Overcast,330,2013-03-12 01:53:00
8:53 PM,28.9,19.9,69,30.19,10.0,NNW,17.3,25.3,N/A,,Overcast,330,2013-03-12 02:53:00
9:53 PM,27.0,21.9,81,30.22,10.0,NW,19.6,-,N/A,,Mostly Cloudy,310,2013-03-12 03:53:00
10:53 PM,26.1,19.9,78,30.23,10.0,NW,20.7,27.6,N/A,,Overcast,320,2013-03-12 04:53:00
11:42 PM,24.8,19.4,80,30.17,10.0,NW,18.4,-,N/A,,Mostly Cloudy,310,2013-03-12 05:42:00
11:53 PM,24.1,19.0,81,30.24,10.0,NW,16.1,25.3,0.00,,Scattered Clouds,310,2013-03-12 05:53:00